Regional Weather Roundup
Issued by NWS

Home | Current Version | Previous Version | Graphics & Text | Print | Product List | Glossary On
Versions: 1 2 3 4 5 6 7 8 9 10 11 12 13 14 15 16 17 18 19 20 21 22 23 24 25 26
000
ASUS45 KSLC 261410
RWRUT

UTAH REGIONAL WEATHER ROUNDUP
NATIONAL WEATHER SERVICE SALT LAKE CITY UT
800 AM MDT WED JUL 26 2017

UTZ001>011-023>025-261500-

NORTHERN UTAH

CITY           SKY/WX    TMP DP  RH WIND       PRES   REMARKS
BRIGHAM CITY   CLOUDY    72  55  56 S10       30.21R
DUGWAY         MOSUNNY   66  61  81 E3        30.20
HILL AFB       CLOUDY    64  60  89 E9        30.22S
LOGAN          LGT RAIN  66  60  81 SE3       30.22R
OGDEN          LGT RAIN  67  63  87 CALM      30.20S
SALT LAKE CITY PTSUNNY   67  62  84 SE8       30.19S
TOOELE VALLEY  MOSUNNY   70  59  68 S10       30.20R
WENDOVER       MOSUNNY   70  57  63 CALM      30.18R
HEBER CITY     CLOUDY    63  57  82 CALM      30.27S
WEST JORDAN    CLOUDY    66  66 100 SE3       30.23R

$$

UTZ011>015-024>027-261500-

CENTRAL/NORTHEAST UTAH

CITY           SKY/WX    TMP DP  RH WIND       PRES   REMARKS
PROVO AIRPORT  PTSUNNY   66  64  94 CALM      30.24R
MOAB/CANYONLAN MOSUNNY   71  69  93 CALM      30.20R
DELTA          SUNNY     64  59  82 SW3       30.23S
PRICE          MOSUNNY   64  60  87 SW3       30.29R
RICHFIELD      MOSUNNY   63  63 100 CALM      30.30R
ROOSEVELT      CLOUDY    64  63  94 CALM      30.27S
VERNAL         CLOUDY    67  64  90 CALM      30.26R

$$

UTZ013>016-019>022-027-261500-

SOUTHERN UTAH

CITY           SKY/WX    TMP DP  RH WIND       PRES   REMARKS
BRYCE CANYON   SUNNY     56  54  93 W6        30.41R
CEDAR CITY     SUNNY     64  56  75 CALM      30.28R
MILFORD        SUNNY     65  59  81 S9        30.24R
ST GEORGE      CLOUDY    71  66  84 S5        30.15R
HANKSVILLE     SUNNY     66  63  88 CALM      30.23R
KANAB          SUNNY     63  61  94 N3        30.31R
BLANDING       SUNNY     66  60  79 NE3       30.38R

$$

REGIONAL REPORTS     COLORADO/ARIZONA

CITY           SKY/WX    TMP DP  RH WIND       PRES   REMARKS
CRAIG, CO      CLOUDY    63  60  90 CALM      30.32R
GRAND JUNCTION CLOUDY    69  66  90 SE3       30.24R
RIFLE, CO      RAIN      63  63 100 CALM      30.29R FOG
MONTROSE, CO   SUNNY     65  61  87 SE3       30.31R
CORTEZ, CO     CLOUDY    64  59  83 CALM      30.32R
COLORADO CITY    N/A     63  63 100 CALM      30.28R
PAGE, AZ       SUNNY     71  62  73 CALM      30.22R
GRAND CANYON   SUNNY     58  54  86 NE3       30.38R
KINGMAN, AZ    SUNNY     70  65  84 N7        30.15R
FLAGSTAFF, AZ  SUNNY     57  53  86 CALM      30.41R

$$

REGIONAL REPORTS    NEVADA/IDAHO/WYOMING

CITY           SKY/WX    TMP DP  RH WIND       PRES   REMARKS
LAS VEGAS, NV  MOSUNNY   81  67  62 NE6       30.07R
ELY, NY        SUNNY     54  52  93 MISG      30.33R
ELKO, NV       SUNNY     58  51  78 CALM      30.23S
POCATELLO, ID  TSTM      62  60  93 SW12      30.21R
BURLEY, ID     CLOUDY    66  58  75 S6        30.16S
FORT BRIDGER,  CLOUDY    59  54  83 NW6       30.38S
EVANSTON, WY   CLOUDY    56  56 100 S7        30.36R
ROCK SPRINGS,  CLOUDY    60  54  80 S5        30.35R
KEMMERER, WY     N/A     57  48  72 N7        30.38R

$$




USA.gov is the U.S. government's official web portal to all federal, state and local government web resources and services.